Weather in Natashquan

Canada     50°08′00″N   61°47′59″W
temp.,
°C
wind,
m/s
gust,
m/s
humid.,
%
clouds,
%
prec.,
mm/h
press.,
hPa
HPBL,
m
16 may, sun
sun1623:00+6ne4767100 0.0 1025146
02:00+5e477796 0.0 1025310
05:00+4e368999 0.0 1027293
08:00+7e337076 0.0 1028846
11:00+7se436899 0.1 1029842
14:00+6sse337066 0.3 1029479
17:00+7sse446642 0.0 1029576
20:00+3se34845 0.0 103071
17 may, mon
mon1723:00+2sse34855 0.0 103063
02:00+2s2284100 0.0 103019
05:00+3e1180100 0.0 103010
08:00+6sse236279 0.0 1030502
11:00+9s4354100 0.0 1029897
14:00+9s4452100 0.0 1028747
17:00+7se455691 0.0 1027372
20:00+4se347758 0.0 102794
18 may, tue
tue1823:00+3sse33875 0.0 102546
02:00+3se33905 0.0 102431
05:00+3ese349237 0.0 102376
08:00+7sse5768100 0.0 1021517
11:00+8sse8978100 0.0 1020613
14:00+5sse71096100 2.3 1018351
17:00+4sse6998100 8.3 1017353
20:00+4ese3698100 13.3 1017322
19 may, wed
wed1923:00+4ene5598100 1.8 1017592
02:00+4ene6797100 3.0 1018812
05:00+5ne4796100 1.0 1020803
08:00+6ene3689100 1.3 1022613
11:00+7n448191 0.1 1024621
14:00+10nw2267100 0.2 1024893
17:00+9wsw3373100 0.1 1025265
20:00+5wsw3587100 0.1 102772
20 may, thu
thu2023:00+4wnw3587100 0.0 102880
02:00+4wsw3489100 0.0 102857
05:00+5wsw3689100 0.0 1029168
08:00+6sw368489 0.0 1030225
11:00+9ssw61078100 0.0 1028525
14:00+12sw8105974 0.0 1028783
17:00+10ssw81267100 0.0 1027467
20:00+7ssw6117652 0.0 1027221